Year,Month,Day,Hour,Minute,Value (Times are PST for windspeed in km/hr)
2019,02,10,00,00,8.10
2019,02,10,00,01,10.50
2019,02,10,00,02,8.10
2019,02,10,00,03,14.20
2019,02,10,00,04,6.50
2019,02,10,00,05,7.00
2019,02,10,00,06,4.30
2019,02,10,00,07,12.10
2019,02,10,00,08,9.20
2019,02,10,00,09,10.60
2019,02,10,00,10,10.90
2019,02,10,00,11,8.50
2019,02,10,00,12,11.50
2019,02,10,00,13,13.30
2019,02,10,00,14,12.10
2019,02,10,00,15,11.70
2019,02,10,00,16,11.20
2019,02,10,00,17,10.30
2019,02,10,00,18,12.90
2019,02,10,00,19,8.50
2019,02,10,00,20,11.30
2019,02,10,00,21,9.50
2019,02,10,00,22,9.30
2019,02,10,00,23,10.30
2019,02,10,00,24,8.50
2019,02,10,00,25,8.50
2019,02,10,00,26,14.20
2019,02,10,00,27,8.90
2019,02,10,00,28,7.90
2019,02,10,00,29,10.50
2019,02,10,00,30,7.00
2019,02,10,00,31,8.30
2019,02,10,00,32,5.90
2019,02,10,00,33,8.20
2019,02,10,00,34,5.80
2019,02,10,00,35,6.40
2019,02,10,00,36,8.10
2019,02,10,00,37,7.80
2019,02,10,00,38,12.30
2019,02,10,00,39,9.60
2019,02,10,00,40,12.30
2019,02,10,00,41,11.90
2019,02,10,00,42,9.50
2019,02,10,00,43,10.10
2019,02,10,00,44,13.30
2019,02,10,00,45,10.30
2019,02,10,00,46,10.60
2019,02,10,00,47,10.10
2019,02,10,00,48,11.60
2019,02,10,00,49,13.60
2019,02,10,00,50,14.90
2019,02,10,00,51,10.60
2019,02,10,00,52,6.60
2019,02,10,00,53,6.80
2019,02,10,00,54,9.00
2019,02,10,00,55,12.30
2019,02,10,00,56,15.90
2019,02,10,00,57,15.80
2019,02,10,00,58,13.20
2019,02,10,00,59,10.70
2019,02,10,01,00,10.30
2019,02,10,01,01,11.00
2019,02,10,01,02,7.50
2019,02,10,01,03,12.10
2019,02,10,01,04,9.90
2019,02,10,01,05,5.10
2019,02,10,01,06,9.00
2019,02,10,01,07,13.50
2019,02,10,01,08,12.10
2019,02,10,01,09,6.20
2019,02,10,01,10,9.40
2019,02,10,01,11,13.00
2019,02,10,01,12,13.70
2019,02,10,01,13,11.40
2019,02,10,01,14,8.50
2019,02,10,01,15,10.00
2019,02,10,01,16,10.20
2019,02,10,01,17,6.50
2019,02,10,01,18,5.70
2019,02,10,01,19,8.40
2019,02,10,01,20,6.40
2019,02,10,01,21,4.70
2019,02,10,01,22,12.90
2019,02,10,01,23,13.70
2019,02,10,01,24,11.60
2019,02,10,01,25,15.60
2019,02,10,01,26,13.40
2019,02,10,01,27,11.30
2019,02,10,01,28,10.10
2019,02,10,01,29,5.70
2019,02,10,01,30,12.60
2019,02,10,01,31,12.30
2019,02,10,01,32,12.80
2019,02,10,01,33,10.60
2019,02,10,01,34,9.80
2019,02,10,01,35,11.60
2019,02,10,01,36,13.40
2019,02,10,01,37,8.70
2019,02,10,01,38,13.80
2019,02,10,01,39,13.30
2019,02,10,01,40,7.90
2019,02,10,01,41,9.00
2019,02,10,01,42,8.20
2019,02,10,01,43,9.70
2019,02,10,01,44,9.20
2019,02,10,01,45,13.80
2019,02,10,01,46,11.10
2019,02,10,01,47,13.00
2019,02,10,01,48,9.40
2019,02,10,01,49,10.20
2019,02,10,01,50,11.60
2019,02,10,01,51,12.60
2019,02,10,01,52,5.20
2019,02,10,01,53,6.70
2019,02,10,01,54,7.20
2019,02,10,01,55,9.50
2019,02,10,01,56,11.20
2019,02,10,01,57,6.90
2019,02,10,01,58,8.20
2019,02,10,01,59,5.60
2019,02,10,02,00,4.90
2019,02,10,02,01,9.70
2019,02,10,02,02,10.20
2019,02,10,02,03,11.00
2019,02,10,02,04,7.00
2019,02,10,02,05,11.60
2019,02,10,02,06,12.90
2019,02,10,02,07,9.70
2019,02,10,02,08,6.70
2019,02,10,02,09,8.40
2019,02,10,02,10,9.80
2019,02,10,02,11,11.60
2019,02,10,02,12,5.40
2019,02,10,02,13,8.70
2019,02,10,02,14,5.30
2019,02,10,02,15,7.80
2019,02,10,02,16,7.50
2019,02,10,02,17,8.20
2019,02,10,02,18,11.60
2019,02,10,02,19,11.50
2019,02,10,02,20,11.30
2019,02,10,02,21,12.20
2019,02,10,02,22,11.00
2019,02,10,02,23,11.50
2019,02,10,02,24,9.70
2019,02,10,02,25,10.20
2019,02,10,02,26,13.50
2019,02,10,02,27,12.00
2019,02,10,02,28,9.40
2019,02,10,02,29,8.20
2019,02,10,02,30,11.20
2019,02,10,02,31,10.00
2019,02,10,02,32,8.60
2019,02,10,02,33,11.00
2019,02,10,02,34,12.30
2019,02,10,02,35,7.50
2019,02,10,02,36,11.30
2019,02,10,02,37,9.90
2019,02,10,02,38,7.20
2019,02,10,02,39,2.10
2019,02,10,02,40,4.50
2019,02,10,02,41,11.30
2019,02,10,02,42,7.20
2019,02,10,02,43,6.70
2019,02,10,02,44,8.40
2019,02,10,02,45,9.30
2019,02,10,02,46,11.30
2019,02,10,02,47,8.70
2019,02,10,02,48,4.40
2019,02,10,02,49,5.30
2019,02,10,02,50,7.40
2019,02,10,02,51,8.10
2019,02,10,02,52,9.20
2019,02,10,02,53,10.40
2019,02,10,02,54,9.70
2019,02,10,02,55,12.40
2019,02,10,02,56,12.20
2019,02,10,02,57,5.10
2019,02,10,02,58,6.90
2019,02,10,02,59,10.60
2019,02,10,03,00,3.50
2019,02,10,03,01,5.80
2019,02,10,03,02,9.00
2019,02,10,03,03,5.00
2019,02,10,03,04,9.00
2019,02,10,03,05,6.40
2019,02,10,03,06,8.10
2019,02,10,03,07,5.70
2019,02,10,03,08,10.30
2019,02,10,03,09,5.30
2019,02,10,03,10,10.60
2019,02,10,03,11,8.70
2019,02,10,03,12,10.10
2019,02,10,03,13,9.30
2019,02,10,03,14,5.40
2019,02,10,03,15,7.10
2019,02,10,03,16,6.90
2019,02,10,03,17,4.80
2019,02,10,03,18,3.70
2019,02,10,03,19,4.50
2019,02,10,03,20,5.10
2019,02,10,03,21,6.40
2019,02,10,03,22,4.20
2019,02,10,03,23,10.00
2019,02,10,03,24,5.30
2019,02,10,03,25,7.90
2019,02,10,03,26,6.20
2019,02,10,03,27,4.30
2019,02,10,03,28,6.00
2019,02,10,03,29,7.70
2019,02,10,03,30,8.00
2019,02,10,03,31,5.90
2019,02,10,03,32,4.20
2019,02,10,03,33,4.80
2019,02,10,03,34,5.20
2019,02,10,03,35,6.40
2019,02,10,03,36,8.90
2019,02,10,03,37,4.00
2019,02,10,03,38,4.10
2019,02,10,03,39,5.10
2019,02,10,03,40,8.10
2019,02,10,03,41,11.10
2019,02,10,03,42,4.50
2019,02,10,03,43,7.40
2019,02,10,03,44,8.30
2019,02,10,03,45,1.90
2019,02,10,03,46,4.60
2019,02,10,03,47,3.20
2019,02,10,03,48,3.30
2019,02,10,03,49,4.40
2019,02,10,03,50,6.60
2019,02,10,03,51,5.20
2019,02,10,03,52,1.80
2019,02,10,03,53,4.70
2019,02,10,03,54,3.40
2019,02,10,03,55,4.70
2019,02,10,03,56,5.10
2019,02,10,03,57,2.80
2019,02,10,03,58,2.60
2019,02,10,03,59,4.20
2019,02,10,04,00,6.70
2019,02,10,04,01,7.40
2019,02,10,04,02,3.50
2019,02,10,04,03,0.10
2019,02,10,04,04,5.70
2019,02,10,05,02,1.10
2019,02,10,05,03,0.10
2019,02,10,05,04,0.40
2019,02,10,05,05,2.50
2019,02,10,05,06,2.30
2019,02,10,05,07,1.40
2019,02,10,05,08,1.40
2019,02,10,05,09,4.30
2019,02,10,05,10,3.00
2019,02,10,05,11,0.10
2019,02,10,05,12,0.00
2019,02,10,05,13,0.50
2019,02,10,05,14,1.50
2019,02,10,05,15,1.50
2019,02,10,05,16,0.70
2019,02,10,05,17,0.10
2019,02,10,05,18,2.70
2019,02,10,05,19,1.20
2019,02,10,05,20,3.00
2019,02,10,05,21,3.90
2019,02,10,05,22,2.50
2019,02,10,05,23,0.70
2019,02,10,05,24,0.20
2019,02,10,05,25,0.00
2019,02,10,05,26,1.50
2019,02,10,05,27,0.90
2019,02,10,05,28,0.20
2019,02,10,05,29,0.00
2019,02,10,05,30,0.00
2019,02,10,05,31,0.00
2019,02,10,05,32,0.10
2019,02,10,05,33,0.00
2019,02,10,05,34,0.30
2019,02,10,05,35,3.10
2019,02,10,05,36,0.60
2019,02,10,05,37,1.90
2019,02,10,05,38,1.80
2019,02,10,05,39,1.40
2019,02,10,05,40,2.10
2019,02,10,05,41,0.70
2019,02,10,05,42,0.00
2019,02,10,05,43,0.00
2019,02,10,05,44,0.00
2019,02,10,05,45,0.20
2019,02,10,05,46,0.20
2019,02,10,05,47,0.20
2019,02,10,05,48,0.00
2019,02,10,05,49,0.00
2019,02,10,05,50,0.00
2019,02,10,05,51,2.50
2019,02,10,05,52,3.10
2019,02,10,05,53,2.60
2019,02,10,05,54,1.50
2019,02,10,05,55,0.50
2019,02,10,05,56,0.00
2019,02,10,05,57,0.00
2019,02,10,05,58,0.00
2019,02,10,05,59,0.00
2019,02,10,06,00,0.00
2019,02,10,06,01,0.00
2019,02,10,06,02,0.50
2019,02,10,06,03,1.00
2019,02,10,06,04,0.00
2019,02,10,06,05,0.50
2019,02,10,06,06,0.20
2019,02,10,06,07,1.50
2019,02,10,06,08,0.80
2019,02,10,06,09,0.00
2019,02,10,06,10,0.00
2019,02,10,06,11,0.30
2019,02,10,06,12,1.80
2019,02,10,06,13,1.10
2019,02,10,06,14,1.20
2019,02,10,06,15,1.70
2019,02,10,06,16,0.20
2019,02,10,06,17,0.20
2019,02,10,06,18,2.30
2019,02,10,06,19,1.90
2019,02,10,06,20,1.00
2019,02,10,06,21,0.00
2019,02,10,06,22,0.00
2019,02,10,06,23,0.00
2019,02,10,06,24,0.30
2019,02,10,06,25,0.60
2019,02,10,06,26,0.00
2019,02,10,06,27,0.20
2019,02,10,06,28,1.10
2019,02,10,06,29,3.90
2019,02,10,06,30,4.10
2019,02,10,06,31,2.50
2019,02,10,06,32,6.90
2019,02,10,06,33,5.70
2019,02,10,06,34,4.20
2019,02,10,06,35,5.50
2019,02,10,06,36,1.20
2019,02,10,06,37,0.50
2019,02,10,06,38,2.00
2019,02,10,06,39,3.50
2019,02,10,06,40,4.20
2019,02,10,06,41,2.70
2019,02,10,06,42,0.10
2019,02,10,06,43,0.00
2019,02,10,06,44,0.00
2019,02,10,06,45,0.00
2019,02,10,06,46,0.00
2019,02,10,06,47,0.00
2019,02,10,06,48,0.10
2019,02,10,06,49,0.00
2019,02,10,06,50,0.00
2019,02,10,06,51,0.00
2019,02,10,06,52,0.00
2019,02,10,06,53,0.00
2019,02,10,06,54,0.00
2019,02,10,06,55,0.00
2019,02,10,06,56,0.00
2019,02,10,06,57,0.00
2019,02,10,06,58,0.00
2019,02,10,06,59,0.00
2019,02,10,07,00,0.00
2019,02,10,07,01,0.00
2019,02,10,07,02,0.00
2019,02,10,07,03,0.00
2019,02,10,07,04,0.20
2019,02,10,07,05,0.00
2019,02,10,07,06,0.00
2019,02,10,07,07,0.00
2019,02,10,07,08,0.00
2019,02,10,07,09,0.00
2019,02,10,07,10,0.00
2019,02,10,07,11,0.00
2019,02,10,07,12,2.30
2019,02,10,07,13,1.60
2019,02,10,07,14,0.30
2019,02,10,07,15,0.00
2019,02,10,07,16,0.00
2019,02,10,07,17,0.00
2019,02,10,07,18,0.00
2019,02,10,07,19,0.00
2019,02,10,07,20,0.00
2019,02,10,07,21,0.00
2019,02,10,07,22,0.60
2019,02,10,07,23,0.10
2019,02,10,07,24,0.00
2019,02,10,07,25,0.10
2019,02,10,07,26,1.90
2019,02,10,07,27,2.00
2019,02,10,07,28,1.70
2019,02,10,07,29,0.10
2019,02,10,07,30,0.00
2019,02,10,07,31,0.00
2019,02,10,07,32,0.00
2019,02,10,07,33,0.00
2019,02,10,07,34,0.00
2019,02,10,07,35,0.00
2019,02,10,07,36,0.00
2019,02,10,07,37,0.00
2019,02,10,07,38,0.00
2019,02,10,07,39,0.00
2019,02,10,07,40,0.00
2019,02,10,07,41,0.00
2019,02,10,07,42,0.00
2019,02,10,07,43,0.00
2019,02,10,07,44,0.10
2019,02,10,07,45,0.10
2019,02,10,07,46,0.00
2019,02,10,07,47,0.00
2019,02,10,07,48,0.00
2019,02,10,07,49,0.00
2019,02,10,07,50,0.00
2019,02,10,07,51,0.20
2019,02,10,07,52,1.00
2019,02,10,07,53,1.00
2019,02,10,07,54,0.00
2019,02,10,07,55,0.00
2019,02,10,07,56,0.00
2019,02,10,07,57,0.00
2019,02,10,07,58,0.70
2019,02,10,07,59,1.50
2019,02,10,08,00,3.40
2019,02,10,08,01,2.10
2019,02,10,08,02,1.90
2019,02,10,08,03,1.60
2019,02,10,08,04,3.70
2019,02,10,08,05,3.10
2019,02,10,08,06,0.80
2019,02,10,08,07,0.70
2019,02,10,08,08,0.00
2019,02,10,08,09,0.00
2019,02,10,08,10,0.00
2019,02,10,08,11,0.00
2019,02,10,08,12,0.00
2019,02,10,08,13,0.00
2019,02,10,08,14,0.00
2019,02,10,08,15,0.20
2019,02,10,08,16,0.20
2019,02,10,08,17,0.00
2019,02,10,08,18,0.00
2019,02,10,08,19,0.00
2019,02,10,08,20,0.00
2019,02,10,08,21,0.00
2019,02,10,08,22,0.00
2019,02,10,08,23,0.00
2019,02,10,08,24,0.20
2019,02,10,08,25,0.10
2019,02,10,08,26,0.00
2019,02,10,08,27,0.00
2019,02,10,08,28,0.00
2019,02,10,08,29,0.00
2019,02,10,08,30,0.00
2019,02,10,08,31,0.00
2019,02,10,08,32,0.00
2019,02,10,08,33,0.00
2019,02,10,08,34,0.00
2019,02,10,08,35,0.00
2019,02,10,08,36,0.00
2019,02,10,08,37,0.00
2019,02,10,08,38,0.00
2019,02,10,08,39,0.00
2019,02,10,08,40,0.00
2019,02,10,08,41,0.50
2019,02,10,08,42,1.20
2019,02,10,08,43,0.30
2019,02,10,08,44,0.00
2019,02,10,08,45,0.00
2019,02,10,08,46,0.10
2019,02,10,08,47,0.20
2019,02,10,08,48,0.10
2019,02,10,08,49,0.10
2019,02,10,08,50,0.50
2019,02,10,08,51,1.80
2019,02,10,08,52,2.20
2019,02,10,08,53,2.80
2019,02,10,08,54,4.30
2019,02,10,08,55,5.60
2019,02,10,08,56,6.00
2019,02,10,08,57,5.80
2019,02,10,08,58,9.20
2019,02,10,08,59,9.00
2019,02,10,09,00,8.40
2019,02,10,09,01,8.80
2019,02,10,09,02,8.10
2019,02,10,09,03,6.20
2019,02,10,09,04,6.40
2019,02,10,09,05,6.10
2019,02,10,09,06,6.00
2019,02,10,09,07,5.40
2019,02,10,09,08,5.60
2019,02,10,09,09,5.50
2019,02,10,09,10,6.10
2019,02,10,09,11,5.50
2019,02,10,09,12,4.40
2019,02,10,09,13,4.70
2019,02,10,09,14,5.40
2019,02,10,09,15,4.90
2019,02,10,09,16,4.40
2019,02,10,09,17,4.70
2019,02,10,09,18,4.30
2019,02,10,09,19,4.10
2019,02,10,09,20,4.10
2019,02,10,09,21,2.30
2019,02,10,09,22,2.50
2019,02,10,09,23,3.10
2019,02,10,09,24,1.50
2019,02,10,09,25,0.40
2019,02,10,09,26,0.30
2019,02,10,09,27,0.00
2019,02,10,09,28,0.00
2019,02,10,09,29,0.20
2019,02,10,09,30,0.00
2019,02,10,09,31,0.00
2019,02,10,09,32,0.20
2019,02,10,09,33,0.60
2019,02,10,09,34,0.10
2019,02,10,09,35,0.60
2019,02,10,09,36,0.70
2019,02,10,09,37,0.60
2019,02,10,09,38,1.10
2019,02,10,09,39,0.90
2019,02,10,09,40,1.50
2019,02,10,09,41,1.20
2019,02,10,09,42,1.20
2019,02,10,09,43,1.20
2019,02,10,09,44,0.00
2019,02,10,09,45,0.00
2019,02,10,09,46,0.10
2019,02,10,09,47,0.00
2019,02,10,09,48,0.00
2019,02,10,09,49,0.00
2019,02,10,09,50,0.00
2019,02,10,09,51,0.00
2019,02,10,09,52,0.00
2019,02,10,09,53,0.00
2019,02,10,09,54,0.00
2019,02,10,09,55,0.20
2019,02,10,09,56,0.10
2019,02,10,09,57,0.00
2019,02,10,09,58,0.00
2019,02,10,09,59,0.00
2019,02,10,10,00,0.20
2019,02,10,10,01,1.80
2019,02,10,10,02,0.30
2019,02,10,10,03,0.20
2019,02,10,10,04,0.10
2019,02,10,10,05,0.00
2019,02,10,10,06,0.20
2019,02,10,10,07,0.20
2019,02,10,10,08,0.00
2019,02,10,10,09,0.70
2019,02,10,10,10,1.70
2019,02,10,10,11,1.20
2019,02,10,10,12,2.10
2019,02,10,10,13,0.80
2019,02,10,10,14,0.40
2019,02,10,10,15,2.00
2019,02,10,10,16,1.80
2019,02,10,10,17,4.10
2019,02,10,10,18,4.70
2019,02,10,10,19,4.10
2019,02,10,10,20,3.10
2019,02,10,10,21,1.90
2019,02,10,10,22,4.60
2019,02,10,10,23,4.20
2019,02,10,10,24,4.70
2019,02,10,10,25,2.80
2019,02,10,10,26,2.30
2019,02,10,10,27,1.30
2019,02,10,10,28,2.20
2019,02,10,10,29,3.30
2019,02,10,10,30,4.00
2019,02,10,10,31,5.70
2019,02,10,10,32,3.40
2019,02,10,10,33,3.10
2019,02,10,10,34,2.90
2019,02,10,10,35,3.90
2019,02,10,10,36,5.50
2019,02,10,10,37,3.00
2019,02,10,10,38,4.30
2019,02,10,10,39,2.90
2019,02,10,10,40,1.60
2019,02,10,10,41,4.70
2019,02,10,10,42,4.30
2019,02,10,10,43,3.50
2019,02,10,10,44,3.70
2019,02,10,10,45,5.00
2019,02,10,10,46,4.30
2019,02,10,10,47,4.10
2019,02,10,10,48,3.20
2019,02,10,10,49,2.00
2019,02,10,10,50,4.20
2019,02,10,10,51,4.50
2019,02,10,10,52,3.40
2019,02,10,10,53,3.70
2019,02,10,10,54,4.60
2019,02,10,10,55,7.50
2019,02,10,10,56,9.40
2019,02,10,10,57,9.20
2019,02,10,10,58,8.60
2019,02,10,10,59,8.00
2019,02,10,11,00,5.90
2019,02,10,11,01,7.30
2019,02,10,11,02,6.40
2019,02,10,11,03,7.80
2019,02,10,11,04,5.10
2019,02,10,11,05,5.80
2019,02,10,11,06,6.50
2019,02,10,11,07,8.50
2019,02,10,11,08,6.90
2019,02,10,11,09,4.80
2019,02,10,11,10,3.90
2019,02,10,11,11,6.50
2019,02,10,11,12,8.60
2019,02,10,11,13,8.70
2019,02,10,11,14,5.40
2019,02,10,11,15,6.30
2019,02,10,11,16,10.10
2019,02,10,11,17,9.70
2019,02,10,11,18,11.40
2019,02,10,11,19,11.60
2019,02,10,11,20,9.60
2019,02,10,11,21,9.20
2019,02,10,11,22,9.20
2019,02,10,11,23,9.10
2019,02,10,11,24,9.90
2019,02,10,11,25,10.30
2019,02,10,11,26,7.50
2019,02,10,11,27,6.90
2019,02,10,11,28,7.20
2019,02,10,11,29,6.80
2019,02,10,11,30,5.60
2019,02,10,11,31,6.40
2019,02,10,11,32,9.50
2019,02,10,11,33,7.70
2019,02,10,11,34,10.20
2019,02,10,11,35,8.60
2019,02,10,11,36,9.40
2019,02,10,11,37,8.50
2019,02,10,11,38,9.50
2019,02,10,11,39,13.50
2019,02,10,11,40,11.90
2019,02,10,11,41,14.30
2019,02,10,11,42,16.90
2019,02,10,11,43,15.20
2019,02,10,11,44,16.70
2019,02,10,11,45,15.00
2019,02,10,11,46,11.60
2019,02,10,11,47,17.80
2019,02,10,11,48,20.40
2019,02,10,11,49,16.80
2019,02,10,11,50,13.80
2019,02,10,11,51,14.90
2019,02,10,11,52,13.00
2019,02,10,11,53,10.30
2019,02,10,11,54,15.30
2019,02,10,11,55,17.00
2019,02,10,11,56,15.40
2019,02,10,11,57,16.20
2019,02,10,11,58,13.60
2019,02,10,11,59,12.50
2019,02,10,12,00,14.60
2019,02,10,12,01,15.10
2019,02,10,12,02,16.90
2019,02,10,12,03,13.20
2019,02,10,12,04,10.50
2019,02,10,12,05,14.60
2019,02,10,12,06,11.80
2019,02,10,12,07,10.70
2019,02,10,12,08,10.50
2019,02,10,12,09,8.50
2019,02,10,12,10,7.90
2019,02,10,12,11,9.90
2019,02,10,12,12,7.00
2019,02,10,12,13,10.20
2019,02,10,12,14,10.90
2019,02,10,12,15,12.00
2019,02,10,12,16,11.60
2019,02,10,12,17,11.20
2019,02,10,12,18,10.60
2019,02,10,12,19,9.20
2019,02,10,12,20,9.90
2019,02,10,12,21,11.50
2019,02,10,12,22,11.70
2019,02,10,12,23,9.60
2019,02,10,12,24,12.30
2019,02,10,12,25,12.30
2019,02,10,12,26,10.10
2019,02,10,12,27,10.00
2019,02,10,12,28,9.90
2019,02,10,12,29,10.60
2019,02,10,12,30,10.60
2019,02,10,12,31,7.70
2019,02,10,12,32,10.10
2019,02,10,12,33,10.90
2019,02,10,12,34,11.70
2019,02,10,12,35,7.90
2019,02,10,12,36,7.70
2019,02,10,12,37,4.70
2019,02,10,12,38,6.10
2019,02,10,12,39,5.10
2019,02,10,12,40,8.30
2019,02,10,12,41,4.40
2019,02,10,12,42,4.10
2019,02,10,12,43,4.10
2019,02,10,12,44,4.20
2019,02,10,12,45,3.70
2019,02,10,12,46,11.00
2019,02,10,12,47,13.90
2019,02,10,12,48,10.10
2019,02,10,12,49,10.00
2019,02,10,12,50,7.90
2019,02,10,12,51,10.20
2019,02,10,12,52,8.40
2019,02,10,12,53,7.90
2019,02,10,12,54,10.10
2019,02,10,12,55,9.80
2019,02,10,12,56,10.00
2019,02,10,12,57,8.10
2019,02,10,12,58,8.00
2019,02,10,12,59,7.20
2019,02,10,13,00,12.20
2019,02,10,13,01,11.20
2019,02,10,13,02,7.40
2019,02,10,13,03,11.00
2019,02,10,13,04,8.60
2019,02,10,13,05,8.50
2019,02,10,13,06,2.60
2019,02,10,13,07,5.30
2019,02,10,13,08,10.30
2019,02,10,13,09,5.40
2019,02,10,13,10,5.80
2019,02,10,13,11,4.20
2019,02,10,13,12,5.30
2019,02,10,13,13,6.80
2019,02,10,13,14,8.00
2019,02,10,13,15,9.60
2019,02,10,13,16,11.40
2019,02,10,13,17,9.60
2019,02,10,13,18,11.00
2019,02,10,13,19,7.60
2019,02,10,13,20,14.00
2019,02,10,13,21,10.80
2019,02,10,13,22,12.40
2019,02,10,13,23,11.00
2019,02,10,13,24,11.10
2019,02,10,13,25,10.40
2019,02,10,13,26,11.10
2019,02,10,13,27,9.90
2019,02,10,13,28,8.90
2019,02,10,13,29,8.20
2019,02,10,13,30,9.80
2019,02,10,13,31,4.10
2019,02,10,13,32,8.20
2019,02,10,13,33,10.20
2019,02,10,13,34,7.30
2019,02,10,13,35,10.10
2019,02,10,13,36,13.00
2019,02,10,13,37,11.50
2019,02,10,13,38,8.10
2019,02,10,13,39,7.90
2019,02,10,13,40,16.10
2019,02,10,13,41,16.10
2019,02,10,13,42,10.00
2019,02,10,13,43,12.60
2019,02,10,13,44,11.90
2019,02,10,13,45,12.50
2019,02,10,13,46,10.90
2019,02,10,13,47,13.70
2019,02,10,13,48,10.50
2019,02,10,13,49,10.70
2019,02,10,13,50,12.50
2019,02,10,13,51,13.80
2019,02,10,13,52,14.00
2019,02,10,13,53,13.40
2019,02,10,13,54,15.50
2019,02,10,13,55,13.20
2019,02,10,13,56,12.50
2019,02,10,13,57,13.90
2019,02,10,13,58,13.00
2019,02,10,13,59,16.80
2019,02,10,14,00,18.60
2019,02,10,14,01,17.10
2019,02,10,14,02,14.50
2019,02,10,14,03,15.50
2019,02,10,14,04,13.20
2019,02,10,14,05,12.40
2019,02,10,14,06,18.70
2019,02,10,14,07,16.70
2019,02,10,14,08,11.30
2019,02,10,14,09,15.50
2019,02,10,14,10,7.90
2019,02,10,14,11,9.60
2019,02,10,14,12,11.50
2019,02,10,14,13,13.00
2019,02,10,14,14,14.70
2019,02,10,14,15,16.00
2019,02,10,14,16,15.90
2019,02,10,14,17,13.40
2019,02,10,14,18,12.50
2019,02,10,14,19,18.00
2019,02,10,14,20,18.50
2019,02,10,14,21,17.60
2019,02,10,14,22,12.40
2019,02,10,14,23,12.80
2019,02,10,14,24,11.60
2019,02,10,14,25,12.70
2019,02,10,14,26,11.50
2019,02,10,14,27,10.40
2019,02,10,14,28,11.50
2019,02,10,14,29,11.50
2019,02,10,14,30,20.10
2019,02,10,14,31,17.40
2019,02,10,14,32,13.80
2019,02,10,14,33,14.20
2019,02,10,14,34,15.20
2019,02,10,14,35,11.10
2019,02,10,14,36,16.10
2019,02,10,14,37,14.50
2019,02,10,14,38,14.90
2019,02,10,14,39,10.00
2019,02,10,14,40,13.50
2019,02,10,14,41,10.20
2019,02,10,14,42,10.00
2019,02,10,14,43,10.10
2019,02,10,14,44,10.10
2019,02,10,14,45,15.50
2019,02,10,14,46,11.50
2019,02,10,14,47,10.60
2019,02,10,14,48,8.00
2019,02,10,14,49,11.50
2019,02,10,14,50,12.50
2019,02,10,14,51,11.00
2019,02,10,14,52,14.50
2019,02,10,14,53,14.60
2019,02,10,14,54,19.80
2019,02,10,14,55,11.70
2019,02,10,14,56,11.00
2019,02,10,14,57,14.00
2019,02,10,14,58,13.40
2019,02,10,14,59,9.70
2019,02,10,15,00,11.20
2019,02,10,15,01,15.10
2019,02,10,15,02,9.70
2019,02,10,15,03,15.40
2019,02,10,15,04,14.30
2019,02,10,15,05,12.60
2019,02,10,15,06,12.90
2019,02,10,15,07,14.90
2019,02,10,15,08,12.70
2019,02,10,15,09,16.90
2019,02,10,15,10,13.30
2019,02,10,15,11,11.20
2019,02,10,15,12,17.30
2019,02,10,15,13,11.50
2019,02,10,15,14,15.30
2019,02,10,15,15,12.40
2019,02,10,15,16,10.10
2019,02,10,15,17,11.90
2019,02,10,15,18,8.90
2019,02,10,15,19,7.00
2019,02,10,15,20,8.70
2019,02,10,15,21,10.50
2019,02,10,15,22,15.00
2019,02,10,15,23,15.10
2019,02,10,15,24,13.00
2019,02,10,15,25,11.30
2019,02,10,15,26,10.60
2019,02,10,15,27,6.30
2019,02,10,15,28,9.60
2019,02,10,15,29,9.00
2019,02,10,15,30,8.90
2019,02,10,15,31,9.00
2019,02,10,15,32,13.70
2019,02,10,15,33,14.30
2019,02,10,15,34,10.10
2019,02,10,15,35,13.00
2019,02,10,15,36,18.50
2019,02,10,15,37,19.80
2019,02,10,15,38,12.60
2019,02,10,15,39,15.20
2019,02,10,15,40,16.70
2019,02,10,15,41,14.00
2019,02,10,15,42,8.60
2019,02,10,15,43,9.30
2019,02,10,15,44,10.90
2019,02,10,15,45,11.00
2019,02,10,15,46,8.50
2019,02,10,15,47,8.50
2019,02,10,15,48,12.00
2019,02,10,15,49,9.90
2019,02,10,15,50,10.70
2019,02,10,15,51,9.00
2019,02,10,15,52,12.10
2019,02,10,15,53,13.10
2019,02,10,15,54,15.30
2019,02,10,15,55,13.20
2019,02,10,15,56,12.10
2019,02,10,15,57,10.90
2019,02,10,15,58,8.60
2019,02,10,15,59,9.40
2019,02,10,16,00,6.70
2019,02,10,16,01,7.00
2019,02,10,16,02,7.20
2019,02,10,16,03,8.50
2019,02,10,16,04,8.40
2019,02,10,16,05,11.60
2019,02,10,16,06,9.20
2019,02,10,16,07,15.90
2019,02,10,16,08,11.10
2019,02,10,16,09,10.20
2019,02,10,16,10,8.10
2019,02,10,16,11,9.50
2019,02,10,16,12,11.80
2019,02,10,16,13,10.90
2019,02,10,16,14,7.80
2019,02,10,16,15,10.80
2019,02,10,16,16,11.50
2019,02,10,16,17,9.90
2019,02,10,16,18,8.80
2019,02,10,16,19,8.00
2019,02,10,16,20,10.20
2019,02,10,16,21,11.20
2019,02,10,16,22,8.50
2019,02,10,16,23,9.40
2019,02,10,16,24,7.70
2019,02,10,16,25,7.30
2019,02,10,16,26,2.90
2019,02,10,16,27,2.10
2019,02,10,16,28,6.40
2019,02,10,16,29,8.00
2019,02,10,16,30,6.70
2019,02,10,16,31,6.90
2019,02,10,16,32,5.40
2019,02,10,16,33,5.10
2019,02,10,16,34,5.90
2019,02,10,16,35,3.80
2019,02,10,16,36,6.70
2019,02,10,16,37,9.40
2019,02,10,16,38,7.00
2019,02,10,16,39,8.20
2019,02,10,16,40,4.70
2019,02,10,16,41,7.00
2019,02,10,16,42,7.70
2019,02,10,16,43,6.00
2019,02,10,16,44,6.10
2019,02,10,16,45,6.10
2019,02,10,16,46,7.80
2019,02,10,16,47,6.70
2019,02,10,16,48,4.50
2019,02,10,16,49,3.70
2019,02,10,16,50,2.60
2019,02,10,16,51,3.90
2019,02,10,16,52,4.10
2019,02,10,16,53,4.80
2019,02,10,16,54,3.20
2019,02,10,16,55,3.00
2019,02,10,16,56,2.10
2019,02,10,16,57,4.00
2019,02,10,16,58,5.60
2019,02,10,16,59,9.20
2019,02,10,17,00,5.80
2019,02,10,17,01,4.20
2019,02,10,17,02,3.10
2019,02,10,17,03,1.90
2019,02,10,17,04,3.70
2019,02,10,17,05,3.50
2019,02,10,17,06,3.00
2019,02,10,17,07,2.80
2019,02,10,17,08,7.30
2019,02,10,17,09,4.80
2019,02,10,17,10,3.40
2019,02,10,17,11,3.30
2019,02,10,17,12,4.80
2019,02,10,17,13,2.70
2019,02,10,17,14,4.80
2019,02,10,17,15,4.60
2019,02,10,17,16,2.30
2019,02,10,17,17,3.30
2019,02,10,17,18,4.80
2019,02,10,17,19,5.70
2019,02,10,17,20,3.80
2019,02,10,17,21,3.10
2019,02,10,17,22,2.30
2019,02,10,17,23,2.90
2019,02,10,17,24,3.80
2019,02,10,17,25,4.30
2019,02,10,17,26,2.70
2019,02,10,17,27,1.20
2019,02,10,17,28,3.20
2019,02,10,17,29,0.20
2019,02,10,17,30,1.00
2019,02,10,17,31,2.20
2019,02,10,17,32,1.50
2019,02,10,17,33,2.10
2019,02,10,17,34,0.10
2019,02,10,17,35,0.00
2019,02,10,17,36,0.00
2019,02,10,17,37,0.00
2019,02,10,17,38,0.00
2019,02,10,17,39,0.00
2019,02,10,17,40,0.00
2019,02,10,17,41,0.00
2019,02,10,17,42,0.00
2019,02,10,17,43,0.00
2019,02,10,17,44,0.00
2019,02,10,17,45,0.00
2019,02,10,17,46,0.00
2019,02,10,17,47,0.00
2019,02,10,17,48,0.00
2019,02,10,17,49,0.00
2019,02,10,17,50,0.00
2019,02,10,17,51,0.00
2019,02,10,17,52,0.00
2019,02,10,17,53,0.00
2019,02,10,17,54,0.00
2019,02,10,17,55,0.00
2019,02,10,17,56,0.00
2019,02,10,17,57,0.00
2019,02,10,17,58,0.00
2019,02,10,17,59,0.00
2019,02,10,18,00,0.00
2019,02,10,18,01,0.00
2019,02,10,18,02,0.00
2019,02,10,18,03,0.00
2019,02,10,18,04,0.00
2019,02,10,18,05,0.00
2019,02,10,18,06,0.00
2019,02,10,18,07,0.00
2019,02,10,18,08,0.00
2019,02,10,18,09,0.40
2019,02,10,18,10,7.60
2019,02,10,18,11,10.10
2019,02,10,18,12,10.20
2019,02,10,18,13,10.70
2019,02,10,18,14,13.60
2019,02,10,18,15,11.50
2019,02,10,18,16,12.10
2019,02,10,18,17,13.40
2019,02,10,18,18,14.20
2019,02,10,18,19,15.30
2019,02,10,18,20,16.90
2019,02,10,18,21,17.00
2019,02,10,18,22,18.70
2019,02,10,18,23,15.50
2019,02,10,18,24,17.40
2019,02,10,18,25,19.80
2019,02,10,18,26,21.30
2019,02,10,18,27,21.20
2019,02,10,18,28,17.10
2019,02,10,18,29,19.70
2019,02,10,18,30,20.50
2019,02,10,18,31,20.90
2019,02,10,18,32,21.60
2019,02,10,18,33,22.90
2019,02,10,18,34,22.10
2019,02,10,18,35,22.40
2019,02,10,18,36,26.60
2019,02,10,18,37,25.50
2019,02,10,18,38,22.50
2019,02,10,18,39,25.50
2019,02,10,18,40,24.30
2019,02,10,18,41,23.80
2019,02,10,18,42,24.80
2019,02,10,18,43,27.60
2019,02,10,18,44,26.30
2019,02,10,18,45,28.60
2019,02,10,18,46,24.20
2019,02,10,18,47,29.10
2019,02,10,18,48,23.90